DW2738 Weather Reports


time (UTC)temp
C
wind
direction
speed
KPH
gust
KPH
rain 1hr
cm
rain 24hr
cm
rain mn
cm
humidity
%
barometer
mb
20260504150659 20 258 6.4 12.9 0.00 0.00 0.00 48 1013.7
20260504150155 20 216 3.2 6.4 0.00 0.00 0.00 49 1013.8
20260504141124 18 247 11.3 20.9 0.00 0.00 0.00 52 1014.0
20260504140621 18 244 4.8 11.3 0.00 0.00 0.00 52 1014.1
20260504140117 18 257 3.2 16.1 0.00 0.00 0.00 53 1014.3
20260504130545 17 173 8.0 9.7 0.00 0.00 0.00 56 1014.7
20260504110432 6 98 0.0 1.6 0.00 0.00 0.00 94 1015.7
20260504100349 3 203 0.0 1.6 0.00 0.00 0.00 96 1015.7
20260504081742 4 195 0.0 0.0 0.00 0.00 0.00 92 1015.6
20260504081239 3 195 0.0 0.0 0.00 0.00 0.00 91 1015.5
20260504080736 3 195 0.0 0.0 0.00 0.00 0.00 91 1015.4
20260504080232 3 195 0.0 0.0 0.00 0.00 0.00 90 1015.2
20260504070159 4 246 0.0 0.0 0.00 0.00 0.00 89 1015.1
20260504060120 5 186 0.0 3.2 0.00 0.00 0.00 85 1014.6
20260504050548 4 255 0.0 0.0 0.00 0.00 0.00 81 1014.8
20260504045542 4 255 0.0 1.6 0.00 0.00 0.00 81 1014.8
20260504045037 4 240 0.0 1.6 0.00 0.00 0.00 81 1014.6
20260504044535 4 191 1.6 3.2 0.00 0.00 0.00 81 1014.4
20260504044032 4 286 0.0 0.0 0.00 0.00 0.00 80 1014.5
20260504043529 4 195 0.0 0.0 0.00 0.00 0.00 79 1014.5
20260504043026 4 200 0.0 1.6 0.00 0.00 0.00 80 1014.7
20260504042523 4 345 0.0 1.6 0.00 0.00 0.00 81 1014.7
20260504042020 4 14 0.0 0.0 0.00 0.00 0.00 79 1014.7
20260504041516 4 209 1.6 1.6 0.00 0.00 0.00 79 1014.5
20260504041012 4 180 0.0 3.2 0.00 0.00 0.00 79 1014.5
20260504040510 4 270 0.0 0.0 0.00 0.00 0.00 79 1014.7
20260504040006 4 325 0.0 1.6 0.00 0.00 0.00 78 1014.5
20260504035503 4 246 1.6 3.2 0.00 0.00 0.00 79 1014.6
20260504034959 4 254 0.0 1.6 0.00 0.00 0.00 80 1014.7
20260504034457 4 180 0.0 0.0 0.00 0.00 0.00 79 1014.3
20260504033954 4 180 0.0 1.6 0.00 0.00 0.00 77 1014.5
20260504033452 4 212 0.0 1.6 0.00 0.00 0.00 77 1014.1
20260504032949 4 246 0.0 1.6 0.00 0.00 0.00 77 1014.3
20260504032446 5 270 0.0 1.6 0.00 0.00 0.00 78 1014.3
20260504031942 5 254 0.0 1.6 0.00 0.00 0.00 78 1014.3
20260504031439 5 270 0.0 0.0 0.00 0.00 0.00 77 1014.2
20260504030936 5 246 0.0 1.6 0.00 0.00 0.00 77 1014.3
20260504030433 5 270 0.0 0.0 0.00 0.00 0.00 75 1014.2
20260504025929 5 270 0.0 1.6 0.00 0.00 0.00 75 1014.4
20260504025426 5 180 0.0 1.6 0.00 0.00 0.00 74 1014.2
20260504024923 5 203 0.0 1.6 0.00 0.00 0.00 73 1014.3
20260504024420 5 203 0.0 1.6 0.00 0.00 0.00 75 1014.4
20260504023917 5 270 0.0 0.0 0.00 0.00 0.00 75 1014.3
20260504023413 5 270 0.0 0.0 0.00 0.00 0.00 72 1014.2
20260504022909 5 270 0.0 0.0 0.00 0.00 0.00 73 1014.2
20260504022406 5 270 0.0 0.0 0.00 0.00 0.00 72 1014.2
20260504021902 5 270 0.0 0.0 0.00 0.00 0.00 72 1014.0
20260504021400 6 270 0.0 0.0 0.00 0.00 0.00 73 1014.1
20260504020857 6 270 0.0 1.6 0.00 0.00 0.00 71 1014.2
20260504020353 6 195 0.0 0.0 0.00 0.00 0.00 70 1014.3
20260504015849 6 195 0.0 0.0 0.00 0.00 0.00 69 1014.2
20260504015346 6 195 0.0 0.0 0.00 0.00 0.00 72 1014.3
20260504014842 6 209 0.0 1.6 0.00 0.00 0.00 70 1014.1
20260504014338 6 337 0.0 0.0 0.00 0.00 0.00 68 1014.1
20260504013836 6 337 0.0 0.0 0.00 0.00 0.00 65 1014.1
20260504013333 7 353 0.0 0.0 0.00 0.00 0.00 64 1014.1
20260504012830 7 353 0.0 0.0 0.00 0.00 0.00 64 1014.1
20260504012328 7 151 0.0 0.0 0.00 0.00 0.00 65 1014.0
20260504011825 7 166 0.0 1.6 0.00 0.00 0.00 67 1013.9
20260504011321 7 246 0.0 0.0 0.00 0.00 0.00 67 1013.9
20260504010817 7 246 0.0 0.0 0.00 0.00 0.00 65 1013.6
20260504010313 7 246 0.0 0.0 0.00 0.00 0.00 68 1013.6
20260504005810 7 246 0.0 0.0 0.00 0.00 0.00 67 1013.5
20260504005307 7 246 0.0 0.0 0.00 0.00 0.00 66 1013.3
20260504004804 7 246 0.0 0.0 0.00 0.00 0.00 62 1013.4
20260504004302 8 254 0.0 0.0 0.00 0.00 0.00 61 1013.2
20260504003758 8 188 0.0 0.0 0.00 0.00 0.00 60 1013.2
20260504003255 8 188 0.0 0.0 0.00 0.00 0.00 61 1013.1
20260504002751 8 188 0.0 0.0 0.00 0.00 0.00 59 1013.2
20260504002249 9 188 0.0 0.0 0.00 0.00 0.00 58 1013.1
20260504001746 9 188 0.0 0.0 0.00 0.00 0.00 56 1013.2
20260504001243 10 261 0.0 0.0 0.00 0.00 0.00 55 1012.9
20260504000740 10 261 0.0 0.0 0.00 0.00 0.00 54 1012.9
20260504000236 10 220 0.0 0.0 0.00 0.00 0.00 52 1012.9
20260503235735 11 345 0.0 1.6 0.00 0.00 0.00 50 1013.0
20260503235232 11 243 1.6 3.2 0.00 0.00 0.00 49 1013.0
20260503234730 11 180 0.0 0.0 0.00 0.00 0.00 45 1012.8
20260503234227 12 180 0.0 0.0 0.00 0.00 0.00 46 1012.6
20260503233725 12 180 0.0 0.0 0.00 0.00 0.00 44 1012.7
20260503233220 12 261 0.0 3.2 0.00 0.00 0.00 43 1012.5
20260503232717 13 265 3.2 4.8 0.00 0.00 0.00 43 1012.7
20260503232214 13 262 4.8 6.4 0.00 0.00 0.00 40 1012.6
20260503231713 13 258 3.2 4.8 0.00 0.00 0.00 40 1012.5
20260503231208 13 262 6.4 6.4 0.00 0.00 0.00 40 1012.5
20260503230705 13 262 3.2 6.4 0.00 0.00 0.00 38 1012.4
20260503230203 13 248 3.2 4.8 0.00 0.00 0.00 41 1012.4
20260503225659 14 221 3.2 3.2 0.00 0.00 0.00 41 1012.5
20260503225154 14 194 0.0 3.2 0.00 0.00 0.00 40 1012.4
20260503224652 14 262 1.6 6.4 0.00 0.00 0.00 38 1012.4
20260503224149 14 244 4.8 6.4 0.00 0.00 0.00 36 1012.5
20260503223647 14 234 1.6 6.4 0.00 0.00 0.00 37 1012.5
20260503223143 15 248 3.2 4.8 0.00 0.00 0.00 38 1012.4
20260503222640 15 270 0.0 9.7 0.00 0.00 0.00 35 1012.6
20260503222138 15 281 6.4 11.3 0.00 0.00 0.00 37 1012.3
20260503221636 15 239 8.0 8.0 0.00 0.00 0.00 37 1012.4
20260503221133 15 232 3.2 6.4 0.00 0.00 0.00 37 1012.6
20260503220630 15 270 1.6 6.4 0.00 0.00 0.00 37 1012.5
20260503220126 15 225 4.8 6.4 0.00 0.00 0.00 37 1012.3
20260503215624 15 267 6.4 9.7 0.00 0.00 0.00 36 1012.4
20260503215120 15 250 3.2 9.7 0.00 0.00 0.00 38 1012.4
20260503214619 15 270 3.2 12.9 0.00 0.00 0.00 36 1012.2
20260503214115 15 300 0.0 11.3 0.00 0.00 0.00 36 1012.3
20260503213614 15 244 6.4 8.0 0.00 0.00 0.00 36 1012.4
20260503213110 15 270 0.0 6.4 0.00 0.00 0.00 36 1011.9
20260503212608 15 289 4.8 19.3 0.00 0.00 0.00 35 1012.1
20260503212105 15 238 12.9 12.9 0.00 0.00 0.00 36 1012.1
20260503211603 15 290 6.4 11.3 0.00 0.00 0.00 35 1012.0
20260503211057 15 290 0.0 8.0 0.00 0.00 0.00 38 1012.2
20260503210554 15 214 6.4 8.0 0.00 0.00 0.00 35 1012.2
20260503210050 15 215 9.7 12.9 0.00 0.00 0.00 34 1012.0
20260503205547 15 189 4.8 11.3 0.00 0.00 0.00 36 1012.1
20260503205043 15 189 4.8 11.3 0.00 0.00 0.00 36 1012.1
20260503204541 15 257 8.0 9.7 0.00 0.00 0.00 35 1012.2
20260503204038 15 195 1.6 9.7 0.00 0.00 0.00 34 1012.2
20260503203535 15 249 9.7 16.1 0.00 0.00 0.00 34 1012.1
20260503203032 16 257 4.8 12.9 0.00 0.00 0.00 34 1012.1
20260503202530 16 270 9.7 16.1 0.00 0.00 0.00 32 1012.3
20260503202027 16 266 8.0 11.3 0.00 0.00 0.00 33 1012.1
20260503201526 16 263 8.0 11.3 0.00 0.00 0.00 33 1012.2
20260503201022 16 180 0.0 11.3 0.00 0.00 0.00 33 1012.2
20260503200518 16 265 0.0 9.7 0.00 0.00 0.00 33 1012.1
20260503200015 16 326 4.8 11.3 0.00 0.00 0.00 37 1012.0
20260503195513 16 261 6.4 11.3 0.00 0.00 0.00 33 1012.2
20260503195009 16 2 6.4 8.0 0.00 0.00 0.00 34 1012.2
20260503194507 16 246 1.6 11.3 0.00 0.00 0.00 34 1012.3
20260503194006 16 235 4.8 8.0 0.00 0.00 0.00 36 1012.4
20260503193503 15 273 6.4 16.1 0.00 0.00 0.00 33 1012.3
20260503192958 16 237 0.0 8.0 0.00 0.00 0.00 34 1012.3
20260503192455 15 293 3.2 8.0 0.00 0.00 0.00 35 1012.3
20260503191950 16 268 8.0 8.0 0.00 0.00 0.00 35 1012.4
20260503191448 16 265 6.4 9.7 0.00 0.00 0.00 36 1012.2
20260503190944 15 270 4.8 19.3 0.00 0.00 0.00 35 1012.6
20260503190442 15 248 11.3 14.5 0.00 0.00 0.00 35 1012.4
20260503185939 15 225 0.0 12.9 0.00 0.00 0.00 36 1012.8
20260503185435 15 239 8.0 9.7 0.00 0.00 0.00 35 1012.6
20260503184934 15 297 4.8 9.7 0.00 0.00 0.00 38 1012.6
20260503184431 16 248 4.8 9.7 0.00 0.00 0.00 37 1012.6
20260503183927 16 261 4.8 16.1 0.00 0.00 0.00 36 1013.0
20260503183424 15 277 4.8 8.0 0.00 0.00 0.00 38 1013.0
20260503182921 15 311 0.0 9.7 0.00 0.00 0.00 40 1012.8
20260503182420 15 257 6.4 8.0 0.00 0.00 0.00 37 1013.1
20260503181917 15 281 4.8 9.7 0.00 0.00 0.00 38 1012.9
20260503181414 13 189 8.0 9.7 0.00 0.00 0.00 40 1013.2
20260503180910 15 250 0.0 8.0 0.00 0.00 0.00 40 1012.9
20260503180408 15 263 4.8 11.3 0.00 0.00 0.00 38 1012.9
20260503175904 15 227 9.7 11.3 0.00 0.00 0.00 42 1012.8
20260503175403 14 240 8.0 8.0 0.00 0.00 0.00 38 1013.2
20260503174858 14 211 4.8 9.7 0.00 0.00 0.00 41 1012.9
20260503174356 14 252 9.7 14.5 0.00 0.00 0.00 41 1013.1
20260503173851 13 66 6.4 9.7 0.00 0.00 0.00 41 1012.8
20260503173348 15 262 4.8 9.7 0.00 0.00 0.00 40 1013.0
20260503172844 14 270 4.8 8.0 0.00 0.00 0.00 40 1012.8
20260503172342 13 187 3.2 9.7 0.00 0.00 0.00 42 1013.1
20260503171838 14 280 4.8 9.7 0.00 0.00 0.00 39 1013.2
20260503171335 15 241 3.2 8.0 0.00 0.00 0.00 41 1013.0
20260503170832 14 69 0.0 14.5 0.00 0.00 0.00 41 1012.8
20260503170329 13 196 6.4 9.7 0.00 0.00 0.00 41 1013.2